[[{"header":{"parameterUnit":"m.s-1","parameterCategory":1,"la1":30.2991,"la2":30.254,"lo1":-89.0895,"lo2":-89.0444,"dy":0.0017,"dx":0.0017,"nx":28,"ny":28,"refTime":"2026-02-10T09:00:00:Z","depth":0,"parameterNumber":2,"parameterNumberName":"U-component_of_WINDS"},"data":[0,0,0,0,0,0,0,0,0,0,0,0,0,0,0,0,0,0,0,0,0,0,0,0,0,0,0,0,0,0,0,0,0,0,0,0,0,0,0,0,0,0,0,0,0,0,0,0,0,0,0,0,0,0,0,0,0,0,0.0768,0.0768,0,0.0779,0.0779,0.0779,0.0762,0.0762,0.0761,0.0761,0.0772,0.0773,0.0774,0,0,0,0,0,0,0,0,0,0,0,0,0,0.0733,0.0734,0.0768,0.0768,0.0768,0.0779,0.0779,0.0779,0.0762,0.0762,0.0761,0.076,0.0772,0.0773,0.0774,0,0,0,0,0,0,0,0,0,0,0,0,0,0.0747,0.0734,0.0768,0.0761,0.076,0.0779,0.0779,0.0779,0.0762,0.0762,0.0761,0.076,0.0772,0.0773,0.0774,0.08,0,0,0.0778,0.0779,0,0,0,0,0,0,0,0,0.0746,0.0748,0.0762,0.0761,0.0761,0.0768,0.0771,0.0786,0.0763,0.0762,0.076,0.0759,0.0772,0.0773,0.0777,0.0801,0.0801,0.0778,0.0779,0.078,0.078,0,0,0,0,0,0,0,0.0745,0.0747,0.0772,0.0762,0.0761,0.0758,0.0759,0.0774,0.0772,0.0762,0.0761,0.0762,0.0771,0.0776,0.0777,0.0801,0.0778,0.078,0.078,0.0781,0.0847,0.0848,0,0,0,0,0,0,0.0745,0.0747,0.0772,0.0772,0.0751,0.0759,0.076,0.0767,0.0771,0.0771,0.0763,0.0761,0.0774,0.0776,0.0778,0.0809,0.078,0.0781,0.0782,0.0846,0.0847,0.0849,0,0,0,0,0,0,0.0744,0.0747,0.0771,0.0759,0.0762,0.0761,0.0768,0.0767,0.0772,0.0772,0.0772,0.0768,0.0773,0.0776,0.0795,0.0809,0.0782,0.0783,0.0845,0.0847,0.0848,0.087,0,0,0,0,0,0,0.0743,0.0747,0.0756,0.076,0.0763,0.0788,0.0769,0.0768,0.0774,0.0772,0.0777,0.0777,0.0773,0.0793,0.0796,0.081,0.0784,0.0844,0.0846,0.0848,0.0868,0.0872,0.0876,0,0,0,0,0,0.0742,0.0762,0.0757,0.076,0.0774,0.0789,0.0791,0.0786,0.0775,0.0785,0.0785,0.0776,0.0807,0.0795,0.0798,0.0813,0.0843,0.0845,0.0847,0.0867,0.0872,0.0876,0,0,0,0,0,0,0.0761,0.0762,0.0757,0.0778,0.0784,0.0786,0.0798,0.0791,0.0799,0.0797,0.0791,0.0792,0.0813,0.0815,0.0802,0.0838,0.0823,0.0826,0.0837,0.0841,0.0845,0.0844,0.0785,0,0,0,0,0,0.0767,0.0779,0.078,0.0799,0.0802,0.0799,0.0805,0.0801,0.0807,0.0809,0.081,0.0816,0.0827,0.0834,0.0844,0.0868,0.087,0.088,0.0884,0.0887,0.089,0.0904,0.0909,0.0856,0.0856,0.0856,0,0,0.0781,0.0783,0.0791,0.0803,0.0806,0.0818,0.0801,0.0815,0.0824,0.0811,0.0829,0.083,0.0836,0.0858,0.0868,0.0861,0.0905,0.089,0.0892,0.0893,0.0907,0.0912,0.0916,0.0857,0.0857,0.0857,0,0,0.0813,0.0815,0.0832,0.0836,0.0842,0.084,0.0844,0.0848,0.0848,0.0866,0.0857,0.0868,0.0886,0.0891,0.0896,0.0931,0.0923,0.0934,0.0954,0.0967,0.0972,0.0975,0.0988,0.0993,0.0937,0.0937,0.0937,0,0.0829,0.0847,0.0841,0.0856,0.0862,0.085,0.0867,0.0872,0.088,0.0885,0.0876,0.0899,0.0903,0.0926,0.0935,0.0939,0.0944,0.0934,0.0971,0.0975,0.0978,0.0991,0.0996,0.0938,0.0938,0.0938,0.0938,0,0.0868,0.088,0.0893,0.0902,0.0909,0.0925,0.0922,0.093,0.0925,0.0925,0.0944,0.0947,0.0958,0.0963,0.0959,0.0987,0.0982,0.0972,0.0957,0.0985,0.0997,0.1001,0.094,0.0939,0.0939,0.0939,0,0,0.0911,0.0917,0.0922,0.0926,0.0932,0.0942,0.0957,0.0968,0.0975,0.0982,0.0995,0.1011,0.1003,0.1008,0.1004,0.1016,0.1044,0.1006,0.1006,0.1013,0.1076,0.1084,0.1089,0.1039,0.104,0.1041,0.1076,0,0.0943,0.097,0.0966,0.0992,0.1004,0.0994,0.1007,0.1013,0.1013,0.1023,0.1024,0.1035,0.1023,0.1026,0.1038,0.1039,0.1057,0.1036,0.1052,0.1053,0.1052,0.1095,0.1103,0.1136,0.108,0.1081,0.1082,0,0.0984,0.0993,0.102,0.1025,0.1029,0.1042,0.1052,0.1062,0.1068,0.1067,0.1074,0.1068,0.1084,0.1068,0.109,0.1076,0.1083,0.1084,0.1085,0.1087,0.1069,0.1099,0.1146,0.1151,0.1088,0.1088,0.1087,0,0.1014,0.1032,0.1051,0.1055,0.1061,0.107,0.1072,0.1078,0.1085,0.1093,0.1098,0.1108,0.1114,0.1122,0.112,0.1108,0.1143,0.1127,0.1144,0.1144,0.1152,0.1151,0.1201,0.1155,0.1155,0.1155,0.1155,0,0.1051,0.1068,0.1065,0.1076,0.1096,0.1091,0.111,0.1112,0.1117,0.1129,0.112,0.1132,0.1128,0.1139,0.1137,0.1157,0.1159,0.116,0.1159,0.1161,0.1161,0.1165,0.1163,0.1156,0.1156,0.1156,0.1155,0,0.1087,0.1086,0.1106,0.111,0.1111,0.1125,0.1129,0.114,0.114,0.1156,0.1159,0.1159,0.1172,0.117,0.1185,0.1184,0.1208,0.1204,0.1206,0.1205,0.1223,0.1221,0.1278,0.1285,0.1234,0.1234,0.1234,0,0.1111,0.1124,0.113,0.1137,0.1141,0.1153,0.116,0.1156,0.1164,0.1173,0.1183,0.1196,0.1205,0.1227,0.1229,0.124,0.1237,0.1256,0.1239,0.124,0.1238,0.1238,0.1239,0.1259,0.126,0.126,0.1261,0,0.1153,0.1152,0.1163,0.1173,0.1182,0.119,0.1198,0.1204,0.1201,0.121,0.1224,0.1232,0.1247,0.126,0.1271,0.1274,0.1267,0.1266,0.1271,0.1273,0.1274,0.1274,0.1216,0.1265,0.1265,0.1264,0.1264,0.1264,0.1184,0.1196,0.1202,0.1214,0.122,0.1227,0.1238,0.1239,0.1251,0.1263,0.126,0.1275,0.1282,0.1296,0.13,0.1313,0.1306,0.1312,0.1314,0.1316,0.1318,0.1272,0.1315,0.1315,0.1314,0.1314,0.1314,0,0.1227,0.123,0.1242,0.1253,0.1263,0.1255,0.1263,0.1272,0.1286,0.1293,0.1303,0.1319,0.1331,0.1334,0.1346,0.1356,0.1353,0.1359,0.1359,0.136,0.1324,0.1319,0.1361,0.1361,0.1361,0.1361,0.1361,0.1361,0.125,0.127,0.1269,0.1292,0.1295,0.131,0.1316,0.1323,0.1328,0.1346,0.1357,0.1359,0.1364,0.1377,0.1388,0.1389,0.1394,0.1401,0.1401,0.1367,0.1362,0.1358,0.1353,0.1402,0.1402,0.1436,0.1436,0.1436]},{"header":{"parameterUnit":"m.s-1","parameterCategory":1,"la1":30.2991,"la2":30.254,"lo1":-89.0895,"lo2":-89.0444,"dy":0.0017,"dx":0.0017,"nx":28,"ny":28,"refTime":"2026-02-10T09:00:00:Z","depth":0,"parameterNumber":3,"parameterNumberName":"V-component_of_WINDS"},"data":[0,0,0,0,0,0,0,0,0,0,0,0,0,0,0,0,0,0,0,0,0,0,0,0,0,0,0,0,0,0,0,0,0,0,0,0,0,0,0,0,0,0,0,0,0,0,0,0,0,0,0,0,0,0,0,0,0,0,1.003,1.0029,0,0.9962,0.9961,0.996,0.9939,0.9939,0.9939,0.994,0.9865,0.9863,0.9861,0,0,0,0,0,0,0,0,0,0,0,0,0,1.0138,1.0136,1.003,1.0029,1.0028,0.9962,0.9961,0.996,0.9939,0.9939,0.9939,0.994,0.9866,0.9863,0.9861,0,0,0,0,0,0,0,0,0,0,0,0,0,1.0082,1.0135,1.003,1.001,1.0007,0.9962,0.9961,0.996,0.9939,0.9939,0.994,0.994,0.9867,0.9864,0.986,0.9829,0,0,0.985,0.9848,0,0,0,0,0,0,0,0,1.0085,1.0078,1.0014,1.0011,1.0008,0.9959,0.9972,0.9916,0.9938,0.9965,0.994,0.994,0.9896,0.989,0.9876,0.9826,0.9822,0.985,0.9847,0.9846,0.9845,0,0,0,0,0,0,0,1.0089,1.0081,1.0003,1.0013,1.001,1.0003,0.9995,0.9961,0.9928,0.9962,0.9961,0.9953,0.9895,0.988,0.9874,0.9821,0.985,0.9847,0.9844,0.9843,0.9741,0.974,0,0,0,0,0,0,1.0097,1.0084,1.0005,1.0001,1.0049,1.0,0.9992,0.9975,0.9929,0.9922,0.9953,0.9952,0.9885,0.9878,0.9872,0.9832,0.9846,0.9843,0.9841,0.9742,0.9741,0.974,0,0,0,0,0,0,1.0099,1.009,1.0008,1.0042,1.0031,0.9998,0.9978,0.9973,0.9958,0.9921,0.9915,0.9944,0.9885,0.9876,0.984,0.9829,0.9841,0.9838,0.9742,0.9741,0.9741,0.9752,0,0,0,0,0,0,1.0103,1.0091,1.008,1.0042,1.0029,0.9979,0.9978,0.9971,0.9953,0.9951,0.9911,0.9905,0.9885,0.9845,0.9837,0.9824,0.9835,0.9743,0.9742,0.9741,0.9753,0.9752,0.9751,0,0,0,0,0,1.0107,1.0085,1.008,1.007,1.0015,0.9978,0.9971,0.995,0.9952,0.994,0.9916,0.9906,0.9832,0.9842,0.9832,0.9818,0.9744,0.9742,0.9741,0.9753,0.9752,0.9751,0,0,0,0,0,0,1.0121,1.008,1.0073,1.0039,1.0013,0.9975,0.9959,0.9949,0.992,0.992,0.9894,0.9885,0.985,0.983,0.9843,0.9785,0.9787,0.9784,0.98,0.9798,0.9798,0.9803,0.9833,0,0,0,0,0,1.0121,1.0096,1.0061,1.0034,1.0021,0.9992,0.9976,0.9962,0.9932,0.992,0.9894,0.9865,0.9835,0.9815,0.9786,0.975,0.974,0.9735,0.9735,0.9734,0.9731,0.971,0.9708,0.9735,0.9735,0.9735,0,0,1.0119,1.0094,1.0079,1.0036,1.0014,0.9987,0.9983,0.9955,0.9935,0.9916,0.988,0.986,0.9825,0.9789,0.9771,0.9771,0.9722,0.9732,0.9732,0.9729,0.9709,0.9706,0.9704,0.9734,0.9735,0.9735,0,0,1.0103,1.0081,1.0057,1.0035,1.0002,0.9983,0.9977,0.994,0.9926,0.9891,0.9876,0.985,0.9799,0.9775,0.9756,0.973,0.972,0.9721,0.9717,0.9697,0.9695,0.9692,0.9683,0.968,0.9719,0.9719,0.9719,0,1.0105,1.0066,1.0045,1.0018,0.9999,0.9982,0.9956,0.9935,0.9894,0.988,0.9881,0.9816,0.9792,0.975,0.9743,0.9729,0.972,0.9726,0.9697,0.9695,0.9692,0.9683,0.9679,0.9719,0.9719,0.9719,0.9719,0,1.007,1.0043,1.0026,0.9988,0.9967,0.9941,0.9915,0.9896,0.9884,0.9864,0.9827,0.9797,0.9761,0.975,0.9737,0.9706,0.9706,0.9702,0.9703,0.969,0.9681,0.9677,0.972,0.9719,0.9719,0.9719,0,0,1.0061,1.0012,1.0006,0.9989,0.9951,0.9928,0.9901,0.9867,0.9851,0.9822,0.9798,0.9755,0.9751,0.9729,0.9713,0.9696,0.9677,0.9693,0.9692,0.9691,0.964,0.9643,0.964,0.967,0.9669,0.9668,0.9642,0,1.004,0.9992,0.9972,0.9932,0.9907,0.989,0.9865,0.9839,0.9819,0.9793,0.9771,0.9742,0.9739,0.9726,0.9707,0.9683,0.9666,0.9685,0.9645,0.9644,0.9655,0.9635,0.9638,0.9616,0.9639,0.9638,0.9638,0,1.0009,0.9982,0.994,0.9905,0.9893,0.9872,0.9839,0.9815,0.9784,0.9771,0.9747,0.9732,0.9701,0.9704,0.9661,0.9674,0.9656,0.9642,0.964,0.9636,0.964,0.963,0.9608,0.9605,0.9632,0.9632,0.9633,0,1.0007,0.9959,0.9929,0.9914,0.9872,0.9858,0.9839,0.9809,0.9789,0.976,0.9747,0.9714,0.9695,0.9669,0.9645,0.965,0.9604,0.9605,0.9591,0.9592,0.9582,0.9583,0.9558,0.9571,0.9571,0.9571,0.9571,0,0.9985,0.996,0.9927,0.9908,0.9879,0.9856,0.9827,0.9808,0.978,0.9756,0.9739,0.9716,0.9686,0.9658,0.9639,0.9606,0.9597,0.9585,0.958,0.9587,0.9589,0.9575,0.9576,0.957,0.957,0.9571,0.9571,0,0.9978,0.9955,0.992,0.9884,0.9874,0.9855,0.9823,0.9803,0.9783,0.9752,0.9743,0.9711,0.9678,0.9652,0.9609,0.9596,0.956,0.9555,0.9572,0.9569,0.9557,0.9558,0.9522,0.9516,0.9534,0.9533,0.9533,0,0.9966,0.9947,0.9909,0.9892,0.9875,0.9848,0.9828,0.9804,0.9784,0.9747,0.9731,0.9697,0.9669,0.9617,0.9589,0.9556,0.9549,0.9539,0.9544,0.9551,0.9549,0.9551,0.9548,0.9538,0.9538,0.9538,0.9538,0,0.9948,0.9937,0.9911,0.988,0.9858,0.9832,0.9806,0.9793,0.9763,0.9742,0.9709,0.9687,0.9643,0.9609,0.9573,0.9552,0.954,0.9537,0.9532,0.9538,0.9549,0.9543,0.957,0.9538,0.9538,0.9538,0.9538,0.9538,0.9938,0.992,0.989,0.9861,0.9839,0.9815,0.9795,0.9772,0.9745,0.9709,0.9695,0.9661,0.9629,0.958,0.9559,0.9531,0.9529,0.9522,0.952,0.9519,0.952,0.9553,0.9524,0.9524,0.9524,0.9524,0.9524,0,0.9918,0.9898,0.9872,0.9837,0.9813,0.9805,0.9775,0.9756,0.9727,0.9699,0.9672,0.9633,0.9601,0.957,0.9535,0.9519,0.9512,0.951,0.9511,0.9507,0.9523,0.9531,0.9516,0.9516,0.9516,0.9516,0.9516,0.9517,0.9905,0.9874,0.986,0.9818,0.9798,0.9766,0.9749,0.9726,0.9704,0.9663,0.9636,0.9617,0.9587,0.955,0.9519,0.9511,0.9499,0.9499,0.9489,0.9505,0.9506,0.9507,0.9514,0.9496,0.9496,0.9475,0.9475,0.9475]}]]